{"data":{"norad_id":69874,"epoch":"2026-09-19T23:21:30.413952Z","epoch_age_seconds":67141,"freshness":"FRESH","line1":"1 69874U 26156F   26262.97326868  .00000329  00000+0  38836-4 0  9996","line2":"2 69874  97.7437 162.0629 0001754 222.8669 137.2413 14.90977526 11127","mean_motion":14.90977526,"eccentricity":0.0001754,"inclination_deg":97.7437,"raan_deg":162.0629,"arg_perigee_deg":222.8669,"mean_anomaly_deg":137.2413,"bstar":3.8836e-5,"rev_number":1112,"period_min":96.580932635734,"perigee_km":593.66312658684,"apogee_km":596.10926312359,"semimajor_km":6973.0231948552,"source":"CELESTRAK","updated_at":"2026-09-20T09:00:25.163605Z"}}